This is the latest recevied weather packets stored in our database for station/object G6UIM. If no packets are shown the sender has not sent any weather packets the latest 10 day(s).
| Time | Temp. | Humidity | Pressure | Rain* | Wind** | Luminosity | Snow |
|---|---|---|---|---|---|---|---|
| 1777815016 | 14.44° C | 89% | 1011.3 hPa | 0 mm | - | 569 W/m² | - |
| 1777812016 | 12.78° C | 93% | 1011.2 hPa | 0 mm | - | 295 W/m² | - |
| 1777810856 | 12.78° C | 93% | 1011.1 hPa | 0 mm | - | 309 W/m² | - |
| 1777809016 | 12.78° C | 93% | 1011.1 hPa | 0 mm | - | 162 W/m² | - |
| 1777803016 | 11.67° C | 93% | 1011.2 hPa | 0 mm | - | 101 W/m² | - |
| 1777795218 | 10.56° C | 93% | 1011.4 hPa | 0.25 mm | - | 58 W/m² | - |
| 1777794018 | 10.56° C | 93% | 1011.4 hPa | 0.25 mm | - | 38 W/m² | - |
| 1777792838 | 10.56° C | 93% | 1011.3 hPa | 0 mm | - | 24 W/m² | - |
| 1777791617 | 10.56° C | 93% | 1011.4 hPa | 0 mm | - | 39 W/m² | - |
| 1777789817 | 10.56° C | 93% | 1011.2 hPa | 0 mm | - | 21 W/m² | - |
| 1777788617 | 10.56° C | 93% | 1011 hPa | 0 mm | - | 11 W/m² | - |
| 1777785617 | 10.56° C | 93% | 1010.6 hPa | 0 mm | - | 0 W/m² | - |
| 1777781417 | 10.56° C | 92% | 1010.6 hPa | 0 mm | - | 0 W/m² | - |
| 1777780817 | 10.56° C | 92% | 1010.7 hPa | 0 mm | - | 0 W/m² | - |
| 1777778417 | 10.56° C | 93% | 1010.9 hPa | 0 mm | - | 0 W/m² | - |
| 1777777217 | 10.56° C | 93% | 1011 hPa | 0 mm | - | 0 W/m² | - |
| 1777773617 | 10.56° C | 93% | 1011.1 hPa | 0 mm | - | 0 W/m² | - |
| 1777773017 | 10.56° C | 93% | 1011.2 hPa | 0 mm | - | 0 W/m² | - |
| 1777771817 | 10.56° C | 93% | 1011.4 hPa | 0 mm | - | 0 W/m² | - |
| 1777770617 | 10.56° C | 93% | 1011.5 hPa | 0 mm | - | 0 W/m² | - |
| 1777770017 | 10.56° C | 93% | 1011.5 hPa | 0 mm | - | 0 W/m² | - |
| 1777762816 | 11.11° C | 92% | 1012.4 hPa | 0 mm | - | 0 W/m² | - |
| 1777761617 | 11.11° C | 92% | 1012.3 hPa | 0 mm | - | 0 W/m² | - |
| 1777759817 | 11.11° C | 92% | 1012.6 hPa | 0 mm | - | 0 W/m² | - |
| 1777755657 | 10.56° C | 92% | 1012.7 hPa | 0 mm | - | 0 W/m² | - |
* Rain latest hour (hover to see other rain measurements)
** Current wind speed in m/s (hover to see current wind gust speed)